QPF
0.00 0.00 0.00 0.00 0.00 0.00 0.00 0.00 0.00 0.00 0.00 0.00 0.00 0.00 0.00 0.00 0.00 0.00 0.00 0.00 0.00 0.00 0.00 0.00 0.00 0.00 0.00 0.00 0.00 0.00 0.00 0.00 0.00 0.00 0.00 0.00 0.00 0.00 0.00 0.00 0.00 0.00 0.08 0.07
0.00 0.00 0.00 0.00 0.00 0.00 0.00 0.00 0.00 0.00 0.00 0.00 0.00 0.00 0.00 0.00 0.00 0.00 0.00 0.00 0.00 0.00 0.00 0.00 0.00 0.00 0.00 0.00 0.00 0.00 0.00 0.00 0.00 0.00 0.00 0.00 0.00 0.00 0.00 0.00 0.00 0.00 0.01 0.02
0.00 0.00 0.00 0.00 0.00 0.00 0.00 0.00 0.00 0.00 0.00 0.00 0.00 0.00 0.00 0.00 0.00 0.00 0.00 0.00 0.00 0.00 0.00 0.00 0.00 0.00 0.00 0.00 0.00 0.00 0.00 0.00 0.00 0.00 0.00 0.00 0.00 0.00 0.00 0.00 0.00 0.01 0.01 0.00
0.00 0.00 0.00 0.00 0.00 0.00 0.00 0.00 0.00 0.00 0.00 0.00 0.00 0.00 0.00 0.00 0.00 0.00 0.00 0.00 0.00 0.00 0.00 0.00 0.00 0.00 0.00 0.00 0.00 0.00 0.00 0.00 0.00 0.00 0.00 0.00 0.00 0.00 0.00 0.00 0.00 0.00 0.00 0.00
0.00 0.00 0.00 0.00 0.00 0.00 0.00 0.00 0.00 0.00 0.00 0.00 0.00 0.00 0.00 0.00 0.00 0.00 0.00 0.00 0.00 0.00 0.00 0.00 0.00 0.00 0.00 0.00 0.00 0.00 0.00 0.00 0.00 0.00 0.00 0.00 0.00 0.00 0.00 0.00 0.00 0.00 0.00 0.00
0.00 0.00 0.00 0.00 0.00 0.00 0.00 0.00 0.00 0.00 0.00 0.00 0.00 0.00 0.00 0.00 0.00 0.00 0.00 0.00 0.00 0.00 0.00 0.00 0.00 0.00 0.00 0.00 0.00 0.00 0.00 0.00 0.00 0.00 0.00 0.00 0.00 0.00 0.00 0.00 0.00 0.00 0.00 0.00
0.00 0.00 0.00 0.00 0.00 0.00 0.00 0.00 0.00 0.00 0.00 0.00 0.00 0.00 0.00 0.00 0.00 0.00 0.00 0.00 0.00 0.00 0.00 0.00 0.00 0.00 0.00 0.00 0.00 0.00 0.00 0.00 0.00 0.00 0.00 0.00 0.00 0.00 0.00 0.00 0.00 0.00 0.00 0.00
0.00 0.00 0.00 0.00 0.00 0.00 0.00 0.00 0.00 0.00 0.00 0.00 0.00 0.00 0.00 0.00 0.00 0.00 0.00 0.00 0.00 0.00 0.00 0.00 0.00 0.00 0.00 0.00 0.00 0.00 0.00 0.00 0.00 0.00 0.00 0.00 0.00 0.00 0.00 0.00 0.00 0.00 0.00 0.00
0.00 0.00 0.00 0.00 0.00 0.00 0.00 0.00 0.00 0.00 0.00 0.00 0.00 0.00 0.00 0.00 0.00 0.00 0.00 0.00 0.00 0.00 0.00 0.00 0.00 0.00 0.00 0.00 0.00 0.00 0.00 0.00 0.00 0.00 0.00 0.00 0.00 0.00 0.00 0.00 0.00 0.00 0.00 0.00
0.00 0.00 0.00 0.00 0.00 0.00 0.00 0.00 0.00 0.00 0.00 0.00 0.00 0.00 0.00 0.00 0.00 0.00 0.00 0.00 0.00 0.00 0.00 0.00 0.00 0.00 0.00 0.00 0.00 0.00 0.00 0.00 0.00 0.00 0.00 0.00 0.00 0.00 0.00 0.00 0.00 0.00 0.00 0.00
0.00 0.00 0.00 0.00 0.00 0.00 0.00 0.00 0.00 0.00 0.00 0.00 0.00 0.00 0.00 0.00 0.00 0.00 0.00 0.00 0.00 0.00 0.00 0.00 0.00 0.01 0.01 0.01 0.00 0.00 0.00 0.00 0.00 0.00 0.00 0.00 0.00 0.00 0.00 0.00 0.00 0.00 0.00 0.00
0.00 0.00 0.00 0.00 0.00 0.00 0.00 0.00 0.00 0.00 0.00 0.00 0.00 0.00 0.00 0.00 0.00 0.00 0.00 0.00 0.00 0.00 0.00 0.01 0.03 0.02 0.02 0.01 0.00 0.00 0.00 0.00 0.00 0.00 0.00 0.00 0.00 0.00 0.00 0.00 0.00 0.00 0.00 0.00
0.00 0.00 0.00 0.00 0.00 0.00 0.00 0.00 0.00 0.00 0.00 0.00 0.00 0.00 0.00 0.00 0.00 0.00 0.00 0.00 0.00 0.00 0.02 0.01 0.01 0.02 0.01 0.00 0.00 0.00 0.00 0.00 0.00 0.00 0.00 0.00 0.00 0.00 0.00 0.00 0.00 0.00 0.00 0.00
0.00 0.00 0.00 0.00 0.00 0.00 0.00 0.00 0.00 0.00 0.00 0.00 0.00 0.00 0.00 0.00 0.00 0.00 0.00 0.00 0.00 0.02 0.06 0.06 0.05 0.01 0.00 0.00 0.00 0.00 0.00 0.00 0.00 0.00 0.00 0.00 0.00 0.00 0.00 0.00 0.00 0.00 0.00 0.00
0.00 0.00 0.00 0.00 0.00 0.00 0.00 0.00 0.00 0.00 0.00 0.00 0.00 0.00 0.00 0.00 0.00 0.00 0.00 0.02 0.06 0.08 0.07 0.04 0.00 0.01 0.00 0.00 0.00 0.00 0.00 0.00 0.00 0.00 0.00 0.00 0.00 0.00 0.00 0.00 0.00 0.00 0.00 0.00
0.00 0.00 0.00 0.00 0.00 0.00 0.00 0.00 0.00 0.00 0.00 0.00 0.00 0.00 0.00 0.00 0.00 0.00 0.00 0.06 0.11 0.14 0.04 0.00 0.01 0.01 0.00 0.00 0.00 0.00 0.00 0.00 0.00 0.00 0.00 0.00 0.00 0.00 0.00 0.00 0.00 0.00 0.00 0.00
0.00 0.00 0.00 0.01 0.00 0.00 0.00 0.00 0.00 0.00 0.00 0.00 0.00 0.00 0.00 0.00 0.00 0.00 0.00 0.05 0.09 0.09 0.05 0.04 0.05 0.03 0.00 0.00 0.00 0.00 0.00 0.00 0.00 0.00 0.00 0.00 0.00 0.00 0.00 0.00 0.00 0.00 0.00 0.00
0.00 0.00 0.00 0.01 0.01 0.01 0.00 0.00 0.00 0.00 0.00 0.00 0.00 0.00 0.00 0.02 0.01 0.00 0.00 0.01 0.03 0.02 0.02 0.01 0.00 0.00 0.00 0.00 0.00 0.00 0.00 0.00 0.00 0.00 0.00 0.00 0.00 0.00 0.00 0.00 0.00 0.00 0.00 0.00
0.00 0.00 0.00 0.00 0.00 0.00 0.00 0.00 0.00 0.00 0.00 0.00 0.00 0.00 0.01 0.06 0.06 0.04 0.01 0.01 0.01 0.01 0.01 0.00 0.00 0.00 0.00 0.00 0.00 0.00 0.00 0.00 0.00 0.00 0.00 0.00 0.00 0.00 0.00 0.00 0.00 0.00 0.00 0.00
0.00 0.00 0.00 0.00 0.00 0.00 0.00 0.00 0.00 0.00 0.00 0.00 0.00 0.00 0.00 0.02 0.03 0.02 0.01 0.00 0.00 0.00 0.00 0.00 0.00 0.00 0.00 0.00 0.00 0.00 0.00 0.00 0.00 0.00 0.00 0.00 0.00 0.00 0.00 0.00 0.00 0.00 0.00 0.00
0.00 0.00 0.00 0.00 0.00 0.00 0.00 0.00 0.00 0.00 0.00 0.00 0.00 0.00 0.00 0.00 0.00 0.00 0.00 0.00 0.00 0.00 0.00 0.00 0.00 0.00 0.00 0.00 0.00 0.00 0.00 0.00 0.00 0.00 0.00 0.00 0.00 0.00 0.00 0.00 0.00 0.00 0.00 0.00
0.00 0.00 0.00 0.00 0.00 0.00 0.00 0.00 0.00 0.00 0.00 0.00 0.00 0.00 0.00 0.00 0.00 0.00 0.00 0.00 0.00 0.00 0.00 0.00 0.00 0.00 0.00 0.00 0.00 0.00 0.00 0.00 0.00 0.00 0.00 0.00 0.00 0.00 0.00 0.00 0.00 0.00 0.00 0.00
0.01 0.00 0.00 0.00 0.00 0.00 0.00 0.00 0.00 0.00 0.00 0.00 0.00 0.00 0.00 0.00 0.00 0.00 0.00 0.00 0.00 0.00 0.00 0.00 0.00 0.00 0.00 0.00 0.00 0.00 0.00 0.00 0.00 0.00 0.00 0.00 0.00 0.00 0.00 0.00 0.00 0.00 0.00 0.00
0.00 0.00 0.00 0.00 0.00 0.00 0.00 0.00 0.00 0.00 0.00 0.00 0.00 0.00 0.00 0.00 0.00 0.00 0.00 0.00 0.00 0.00 0.00 0.00 0.00 0.00 0.00 0.00 0.00 0.00 0.00 0.00 0.00 0.00 0.00 0.00 0.00 0.00 0.00 0.00 0.00 0.00 0.00 0.00
0.00 0.00 0.00 0.00 0.00 0.00 0.00 0.00 0.00 0.00 0.00 0.00 0.00 0.00 0.00 0.00 0.00 0.00 0.00 0.00 0.00 0.00 0.00 0.00 0.00 0.00 0.00 0.00 0.00 0.00 0.00 0.00 0.00 0.00 0.00 0.00 0.00 0.00 0.00 0.00 0.00 0.00 0.00 0.00
0.00 0.00 0.00 0.00 0.00 0.00 0.00 0.00 0.00 0.00 0.00 0.00 0.00 0.00 0.00 0.00 0.00 0.00 0.00 0.00 0.00 0.00 0.00 0.00 0.00 0.00 0.00 0.00 0.00 0.00 0.00 0.00 0.00 0.00 0.00 0.00 0.00 0.00 0.00 0.00 0.00 0.00 0.00 0.00
MSLP
1008.81 1008.35 1006.89 1006.64 1006.60 1006.51 1006.40 1006.89 1007.02 1007.34 1007.49 1007.23 1007.16 1007.22 1006.97 1007.25 1007.50 1007.68 1007.32 1007.61 1008.00 1007.95 1007.96 1008.57 1009.14 1009.70 1010.15 1010.76 1011.43 1011.95 1012.32 1012.79 1013.09 1013.28 1013.44 1013.42 1013.35 1013.56 1013.75 1013.69 1013.72 1013.86 1013.92 1013.96
1008.77 1007.83 1007.73 1008.03 1007.63 1007.16 1007.08 1007.04 1007.18 1007.52 1007.45 1007.24 1007.43 1007.34 1007.45 1007.14 1007.22 1007.30 1007.33 1007.78 1007.96 1008.11 1007.98 1008.30 1008.92 1009.57 1010.22 1010.96 1011.51 1011.97 1012.36 1012.83 1013.11 1013.37 1013.63 1013.61 1013.69 1013.96 1014.52 1014.65 1014.73 1014.55 1014.31 1013.90
1007.61 1007.79 1008.15 1007.80 1007.60 1007.23 1007.17 1006.69 1007.03 1007.06 1007.33 1007.59 1007.60 1007.69 1007.65 1007.59 1007.40 1007.40 1007.61 1007.67 1007.85 1007.66 1007.69 1008.00 1008.87 1009.53 1010.23 1010.95 1011.63 1012.06 1012.43 1012.85 1013.15 1013.37 1013.46 1013.78 1014.09 1014.67 1015.02 1015.09 1015.41 1015.08 1014.53 1014.07
1007.77 1007.75 1007.75 1007.77 1007.62 1007.35 1007.04 1007.08 1007.06 1007.38 1007.24 1007.03 1007.56 1006.95 1007.40 1007.48 1007.57 1007.47 1007.40 1007.61 1007.64 1007.36 1007.49 1007.91 1008.50 1009.26 1010.15 1010.79 1011.32 1011.81 1012.20 1012.52 1012.81 1013.01 1013.17 1013.37 1013.92 1014.95 1015.47 1015.51 1015.53 1015.08 1014.28 1014.62
1007.09 1007.14 1007.16 1007.06 1007.07 1007.54 1007.33 1007.29 1007.00 1007.26 1007.47 1007.67 1007.64 1007.41 1006.35 1007.21 1006.83 1006.85 1007.21 1007.37 1007.55 1007.56 1007.68 1007.87 1008.41 1009.31 1010.10 1010.79 1011.28 1011.79 1012.21 1012.56 1012.88 1013.10 1013.31 1013.63 1014.32 1015.01 1015.16 1015.07 1014.85 1014.91 1015.29 1015.40
1006.59 1006.73 1006.96 1006.69 1007.35 1007.57 1007.27 1007.31 1007.45 1007.73 1007.66 1007.56 1007.22 1007.17 1006.12 1006.19 1006.25 1006.52 1006.58 1006.86 1007.35 1007.60 1007.82 1008.28 1009.04 1009.71 1010.23 1010.88 1011.46 1012.05 1012.46 1012.94 1013.29 1013.29 1013.61 1013.88 1014.19 1014.65 1014.77 1014.94 1015.10 1015.31 1015.45 1015.44
1006.27 1006.55 1006.52 1006.51 1007.00 1007.24 1007.16 1007.05 1007.06 1007.56 1007.44 1007.05 1007.74 1007.33 1006.02 1006.20 1006.41 1006.39 1006.37 1006.90 1007.19 1007.33 1007.54 1008.14 1008.96 1009.70 1010.32 1010.78 1011.40 1012.10 1012.58 1013.11 1013.34 1013.51 1013.85 1014.12 1014.31 1014.71 1014.88 1015.05 1015.25 1015.33 1015.45 1015.46
1005.21 1005.96 1005.79 1005.99 1005.88 1005.96 1006.56 1006.48 1005.95 1006.06 1006.56 1007.07 1008.05 1006.62 1006.17 1006.24 1006.76 1006.94 1007.07 1007.01 1007.22 1007.26 1007.31 1007.74 1008.54 1009.63 1010.39 1010.83 1011.44 1012.07 1012.62 1013.13 1013.50 1013.74 1014.11 1014.45 1014.59 1014.75 1015.07 1015.35 1015.51 1015.63 1015.65 1015.67
1004.44 1004.69 1005.23 1005.38 1005.64 1005.85 1006.19 1006.38 1006.51 1006.56 1007.22 1006.89 1006.98 1006.95 1006.82 1006.81 1006.70 1006.83 1006.86 1006.98 1006.96 1007.17 1007.23 1007.68 1008.59 1009.59 1010.34 1010.86 1011.64 1011.97 1012.49 1013.08 1013.42 1013.83 1014.32 1014.67 1014.94 1015.16 1015.34 1015.77 1015.99 1015.91 1016.02 1015.85
1003.92 1004.35 1004.82 1005.08 1005.53 1005.88 1005.53 1006.00 1006.48 1006.57 1006.42 1006.52 1006.78 1006.61 1005.90 1006.47 1006.53 1006.65 1006.46 1006.64 1006.84 1007.05 1007.44 1007.86 1008.88 1009.79 1010.57 1011.17 1011.87 1012.45 1012.90 1013.23 1013.75 1014.34 1014.82 1015.06 1015.29 1015.62 1015.87 1016.02 1016.09 1016.18 1016.16 1016.05
1003.79 1003.70 1004.65 1004.88 1004.54 1004.72 1005.35 1005.64 1006.00 1006.25 1006.44 1006.17 1006.22 1006.09 1005.86 1006.03 1006.61 1006.88 1006.84 1006.67 1006.74 1006.96 1007.47 1008.31 1009.08 1010.11 1010.89 1011.63 1012.12 1012.67 1013.36 1013.76 1014.32 1014.87 1015.37 1015.60 1015.78 1015.98 1016.08 1016.07 1016.30 1016.36 1016.24 1016.25
1003.83 1003.88 1004.16 1004.23 1004.62 1004.49 1004.73 1004.96 1005.34 1005.70 1006.30 1006.59 1006.48 1006.05 1006.36 1006.71 1007.11 1007.44 1007.31 1007.09 1007.24 1007.46 1007.89 1008.77 1009.68 1010.71 1011.27 1011.71 1012.30 1013.11 1013.85 1014.33 1014.92 1015.44 1015.79 1016.19 1016.43 1016.43 1016.44 1016.39 1016.60 1016.70 1016.73 1016.68
1003.66 1004.05 1004.09 1004.73 1005.02 1004.97 1004.54 1004.81 1004.78 1005.46 1006.09 1005.96 1006.15 1006.05 1006.70 1007.13 1007.55 1007.81 1007.79 1007.71 1007.94 1008.36 1008.97 1009.36 1009.88 1010.53 1011.47 1012.18 1012.96 1013.56 1014.27 1014.95 1015.28 1015.84 1016.08 1016.55 1016.77 1016.87 1017.02 1016.93 1017.10 1017.13 1017.06 1016.97
1003.48 1003.99 1003.70 1003.67 1003.65 1003.95 1004.22 1004.43 1004.56 1004.77 1005.27 1005.31 1005.49 1005.76 1006.62 1007.18 1007.78 1008.33 1008.49 1008.51 1008.64 1009.11 1009.62 1010.13 1010.72 1011.62 1012.37 1013.04 1013.54 1014.28 1015.12 1015.50 1015.81 1016.35 1016.57 1017.06 1017.41 1017.70 1017.72 1017.54 1017.53 1017.60 1017.58 1017.31
1003.84 1004.01 1004.30 1004.31 1004.07 1003.91 1003.70 1003.68 1004.25 1004.47 1004.56 1005.12 1004.97 1005.63 1006.13 1007.45 1008.36 1008.93 1009.11 1009.38 1009.82 1010.37 1010.73 1011.41 1011.92 1012.61 1013.45 1014.00 1014.56 1015.22 1015.84 1016.15 1016.47 1016.86 1017.36 1017.91 1018.25 1018.41 1018.31 1018.01 1017.94 1017.90 1017.79 1017.46
1004.47 1004.69 1004.66 1004.86 1004.50 1004.08 1003.89 1004.09 1004.34 1004.64 1005.04 1005.35 1005.57 1006.32 1007.08 1008.40 1009.37 1009.76 1010.10 1010.54 1011.42 1011.80 1012.60 1013.08 1013.72 1014.37 1015.10 1015.76 1016.18 1016.60 1016.96 1017.23 1017.59 1017.76 1018.14 1018.63 1018.88 1018.82 1018.66 1018.36 1018.35 1018.24 1017.87 1017.55
1004.55 1004.75 1004.98 1005.19 1005.17 1004.58 1004.51 1004.41 1004.39 1004.77 1005.21 1005.51 1005.86 1006.66 1008.02 1009.44 1010.62 1011.37 1011.92 1012.07 1013.17 1013.73 1014.43 1015.21 1015.85 1016.62 1017.14 1017.48 1017.92 1018.04 1018.22 1018.15 1018.45 1018.53 1018.83 1019.19 1019.37 1019.13 1018.90 1018.71 1018.56 1018.16 1017.79 1017.41
1004.73 1004.94 1005.35 1005.68 1005.58 1005.11 1005.04 1005.13 1004.78 1005.15 1005.90 1006.50 1006.94 1007.67 1009.05 1010.98 1012.79 1013.35 1013.63 1014.05 1014.84 1015.65 1016.17 1017.00 1017.68 1018.32 1018.75 1019.14 1018.92 1019.22 1019.23 1019.09 1019.06 1019.33 1019.68 1019.71 1019.60 1019.28 1019.03 1018.90 1018.44 1018.07 1017.64 1017.23
1005.10 1004.98 1005.83 1005.88 1005.71 1005.87 1005.30 1005.36 1005.16 1005.11 1006.58 1007.37 1007.98 1009.22 1010.68 1011.90 1012.80 1014.88 1015.53 1015.96 1016.51 1017.23 1017.84 1018.60 1019.28 1019.81 1019.89 1020.15 1020.31 1020.01 1020.12 1019.71 1019.77 1019.99 1020.06 1020.02 1019.93 1019.73 1019.30 1018.72 1018.22 1017.95 1017.51 1017.08
1005.56 1005.29 1005.33 1006.17 1005.73 1005.43 1004.67 1005.02 1005.35 1005.61 1006.35 1007.56 1008.48 1009.56 1010.52 1011.53 1012.91 1015.91 1016.97 1017.40 1017.98 1018.40 1018.74 1019.31 1020.10 1020.60 1020.78 1021.05 1021.21 1020.77 1020.29 1020.27 1020.48 1020.61 1020.38 1020.52 1020.48 1019.93 1019.11 1018.75 1018.36 1018.00 1017.68 1017.21
1005.73 1005.87 1005.59 1005.94 1005.98 1005.82 1005.52 1005.76 1006.00 1006.34 1007.06 1007.71 1008.78 1009.97 1011.21 1012.15 1013.30 1016.21 1017.55 1018.46 1019.04 1019.52 1019.89 1020.35 1020.86 1021.26 1021.61 1021.71 1021.40 1020.89 1020.81 1020.84 1021.16 1021.26 1021.22 1020.89 1020.30 1019.74 1019.45 1018.99 1018.48 1018.04 1017.62 1017.33
1005.25 1005.78 1006.18 1006.78 1006.78 1006.75 1006.52 1006.67 1006.64 1007.24 1007.82 1008.60 1009.85 1011.20 1012.65 1013.84 1015.56 1017.02 1018.07 1018.90 1019.57 1020.14 1020.71 1021.13 1021.38 1021.77 1021.92 1021.71 1021.27 1021.16 1021.46 1022.04 1022.14 1021.81 1021.30 1020.76 1020.45 1020.12 1019.51 1019.02 1018.47 1017.88 1017.56 1016.93
1005.88 1005.54 1005.85 1007.12 1007.47 1007.83 1007.77 1007.65 1007.59 1007.90 1008.57 1009.98 1010.91 1012.31 1013.10 1014.80 1016.54 1017.83 1018.87 1019.84 1020.68 1021.14 1021.45 1021.63 1021.43 1021.52 1021.92 1022.08 1022.25 1022.25 1022.47 1022.49 1022.33 1021.83 1021.28 1020.87 1020.39 1019.76 1019.33 1018.76 1018.33 1017.91 1017.48 1016.98
1006.03 1006.25 1006.50 1007.52 1008.62 1008.84 1008.96 1008.90 1008.90 1009.28 1010.04 1011.24 1012.36 1013.55 1014.47 1015.37 1017.28 1018.57 1019.54 1020.33 1020.92 1021.38 1021.56 1021.72 1021.78 1022.01 1022.43 1022.76 1022.83 1022.89 1022.82 1022.71 1022.32 1021.79 1021.20 1020.67 1020.17 1019.76 1019.26 1018.84 1018.44 1018.14 1017.72 1017.23
1006.15 1006.42 1007.28 1008.59 1009.42 1009.74 1010.35 1010.26 1010.46 1011.03 1011.81 1012.80 1013.95 1014.83 1015.75 1016.66 1018.01 1019.09 1020.02 1020.74 1021.21 1021.53 1021.89 1022.25 1022.56 1023.00 1023.25 1023.37 1023.36 1023.38 1023.26 1022.95 1022.37 1021.81 1021.38 1020.90 1020.34 1019.79 1019.38 1019.08 1018.74 1018.34 1017.89 1017.59
1006.65 1006.44 1006.54 1007.25 1008.60 1009.06 1010.86 1011.65 1011.81 1012.08 1013.11 1014.05 1014.85 1016.19 1017.30 1017.92 1018.77 1019.77 1020.59 1021.35 1021.81 1022.22 1022.50 1022.73 1023.35 1023.61 1023.84 1023.84 1023.79 1023.68 1023.48 1023.13 1022.65 1021.98 1021.41 1020.92 1020.44 1019.95 1019.49 1019.13 1018.67 1018.24 1017.96 1017.53
Thickness
5569 5579 5594 5614 5631 5639 5646 5645 5646 5657 5668 5678 5683 5689 5699 5708 5712 5719 5731 5737 5742 5752 5767 5771 5774 5778 5780 5777 5774 5773 5773 5773 5772 5771 5769 5767 5765 5763 5759 5758 5756 5753 5750 5748
5564 5577 5593 5597 5610 5619 5625 5632 5641 5652 5664 5674 5671 5679 5688 5701 5710 5719 5725 5728 5736 5743 5754 5761 5764 5766 5767 5765 5764 5764 5763 5763 5765 5762 5758 5758 5756 5753 5747 5744 5742 5741 5741 5742
5571 5580 5587 5596 5602 5611 5619 5632 5638 5646 5656 5662 5664 5663 5677 5691 5704 5713 5719 5726 5730 5741 5749 5755 5754 5756 5755 5753 5752 5752 5752 5751 5751 5750 5749 5745 5743 5737 5733 5732 5728 5728 5730 5733
5566 5579 5584 5591 5595 5611 5612 5631 5640 5640 5645 5644 5662 5653 5668 5683 5687 5700 5712 5717 5725 5735 5743 5747 5750 5748 5745 5744 5746 5745 5744 5743 5742 5741 5740 5737 5730 5720 5718 5717 5715 5717 5722 5717
5570 5577 5584 5589 5602 5608 5611 5627 5638 5641 5639 5639 5647 5648 5680 5675 5684 5698 5705 5711 5718 5727 5734 5739 5741 5740 5739 5738 5737 5736 5735 5734 5732 5730 5729 5725 5716 5710 5711 5711 5711 5709 5704 5700
5576 5589 5589 5598 5599 5605 5618 5619 5627 5631 5634 5625 5647 5651 5666 5678 5688 5694 5706 5711 5710 5716 5723 5727 5727 5729 5729 5730 5727 5725 5722 5719 5718 5718 5715 5712 5709 5706 5703 5701 5699 5695 5692 5690
5576 5580 5591 5600 5592 5604 5609 5612 5608 5608 5614 5624 5634 5640 5669 5681 5685 5695 5702 5701 5705 5712 5718 5719 5718 5717 5717 5719 5718 5714 5710 5706 5707 5706 5702 5700 5699 5694 5691 5688 5685 5682 5680 5679
5576 5572 5592 5602 5605 5605 5605 5616 5617 5603 5608 5619 5622 5637 5658 5680 5680 5682 5686 5694 5698 5705 5713 5714 5713 5710 5709 5710 5707 5704 5700 5696 5696 5694 5691 5688 5686 5684 5680 5676 5674 5671 5668 5666
5585 5588 5605 5609 5613 5614 5607 5606 5627 5616 5615 5623 5633 5641 5651 5661 5670 5677 5682 5685 5692 5697 5705 5708 5706 5703 5700 5697 5694 5695 5693 5689 5687 5683 5679 5676 5673 5670 5668 5663 5659 5658 5655 5656
5601 5589 5607 5612 5615 5614 5618 5630 5611 5617 5608 5608 5624 5632 5648 5652 5663 5673 5682 5685 5686 5693 5696 5699 5696 5692 5689 5687 5684 5683 5681 5677 5674 5669 5667 5665 5661 5658 5655 5652 5649 5647 5646 5645
5604 5607 5599 5609 5611 5611 5610 5609 5616 5623 5623 5615 5616 5631 5656 5659 5659 5661 5670 5679 5683 5687 5690 5687 5687 5683 5678 5675 5674 5670 5666 5663 5659 5656 5653 5650 5648 5645 5644 5643 5639 5636 5634 5631
5605 5606 5598 5611 5619 5631 5629 5624 5626 5614 5613 5618 5622 5636 5649 5652 5652 5654 5661 5670 5674 5679 5681 5679 5675 5669 5667 5667 5665 5659 5654 5651 5648 5644 5641 5638 5636 5635 5632 5629 5626 5622 5618 5616
5611 5602 5595 5596 5608 5614 5620 5622 5633 5626 5620 5620 5618 5636 5643 5647 5647 5650 5654 5661 5664 5666 5665 5667 5667 5666 5662 5658 5653 5650 5645 5639 5638 5634 5632 5626 5623 5621 5617 5616 5611 5608 5607 5605
5615 5601 5615 5611 5621 5625 5617 5623 5631 5634 5618 5629 5636 5646 5641 5644 5645 5644 5647 5652 5658 5656 5656 5656 5654 5651 5649 5646 5643 5638 5632 5631 5626 5621 5619 5615 5612 5606 5604 5602 5599 5597 5594 5593
5614 5609 5610 5613 5619 5626 5631 5635 5632 5633 5642 5629 5648 5643 5650 5642 5640 5637 5640 5642 5642 5640 5642 5640 5641 5639 5637 5634 5632 5627 5620 5616 5613 5609 5606 5601 5596 5592 5590 5590 5589 5586 5583 5581
5603 5598 5609 5607 5620 5628 5628 5630 5634 5636 5633 5637 5640 5638 5643 5637 5632 5629 5627 5625 5621 5624 5619 5623 5624 5622 5618 5613 5611 5608 5604 5600 5597 5597 5594 5588 5583 5582 5580 5580 5577 5573 5572 5569
5609 5606 5607 5604 5611 5624 5619 5628 5635 5633 5636 5643 5639 5639 5634 5625 5618 5612 5604 5606 5599 5601 5602 5601 5599 5595 5592 5591 5589 5588 5586 5587 5585 5585 5581 5575 5571 5570 5569 5568 5566 5564 5562 5559
5607 5606 5601 5600 5606 5602 5623 5625 5636 5633 5625 5627 5630 5632 5626 5607 5591 5592 5595 5593 5590 5587 5586 5584 5580 5576 5572 5571 5572 5571 5572 5574 5574 5571 5565 5563 5560 5560 5561 5559 5557 5555 5553 5549
5604 5608 5590 5595 5601 5606 5618 5621 5627 5637 5624 5620 5619 5611 5603 5596 5595 5574 5577 5577 5574 5571 5567 5561 5558 5557 5556 5555 5554 5559 5558 5562 5561 5558 5555 5552 5550 5550 5550 5550 5548 5546 5542 5537
5598 5605 5609 5591 5601 5599 5630 5630 5633 5634 5628 5620 5617 5609 5605 5608 5601 5573 5560 5561 5559 5558 5559 5557 5550 5547 5545 5542 5541 5547 5552 5551 5548 5544 5543 5540 5538 5538 5541 5540 5538 5534 5528 5525
5590 5593 5605 5599 5602 5610 5622 5624 5628 5617 5626 5621 5616 5610 5607 5603 5599 5563 5554 5550 5548 5547 5546 5543 5539 5536 5531 5530 5534 5540 5541 5538 5533 5530 5528 5527 5529 5530 5530 5528 5526 5522 5518 5514
5596 5593 5595 5591 5597 5605 5615 5619 5620 5619 5614 5612 5606 5598 5586 5577 5564 5555 5550 5545 5542 5538 5535 5532 5531 5527 5526 5528 5532 5532 5527 5519 5515 5515 5517 5519 5519 5519 5518 5516 5515 5513 5510 5511
5588 5602 5601 5601 5604 5592 5597 5604 5607 5610 5605 5597 5592 5583 5580 5568 5555 5547 5540 5534 5528 5525 5524 5523 5525 5525 5520 5517 5514 5513 5508 5506 5505 5507 5509 5509 5509 5510 5509 5509 5506 5504 5504 5504
5585 5589 5591 5592 5581 5582 5585 5590 5594 5595 5590 5583 5575 5568 5565 5559 5545 5536 5530 5525 5521 5518 5516 5515 5514 5512 5507 5503 5501 5499 5497 5496 5496 5498 5500 5500 5501 5500 5501 5499 5496 5494 5495 5495
5586 5588 5580 5568 5569 5574 5571 5576 5577 5575 5571 5564 5558 5554 5548 5544 5535 5527 5521 5515 5512 5509 5506 5503 5500 5495 5492 5490 5488 5485 5484 5484 5486 5489 5489 5489 5491 5491 5489 5486 5485 5485 5487 5486
5574 5582 5589 5587 5578 5584 5564 5562 5564 5564 5557 5550 5546 5537 5532 5530 5523 5516 5510 5504 5501 5498 5495 5492 5485 5482 5479 5477 5476 5475 5474 5474 5475 5478 5479 5480 5480 5480 5480 5477 5477 5480 5479 5480